DW6885 Weather Reports


Display with metric or nautical units.
time (UTC)temp
F
wind
direction
speed
MPH
gust
MPH
rain 1hr
in
rain 24hr
in
rain mn
in
humidity
%
barometer
mb
20140421095539 28 200 0.0 0.0 0.00 0.00 0.00 91 1022.3
20140421095202 28 200 0.0 0.0 0.00 0.00 0.00 91 1022.3
20140421093700 28 200 0.0 0.0 0.00 0.00 0.00 91 1022.5
20140421093539 29 200 0.0 0.0 0.00 0.00 0.00 91 1022.5
20140421092205 28 200 0.0 0.0 0.00 0.00 0.00 90 1022.6
20140421091540 29 200 0.0 0.0 0.00 0.00 0.00 90 1022.6
20140421090605 28 200 0.0 0.0 0.00 0.00 0.00 90 1022.7
20140421090538 29 200 0.0 0.0 0.00 0.00 0.00 90 1022.7
20140421085105 29 200 0.0 0.0 0.00 0.00 0.00 89 1022.9
20140421083605 29 200 0.0 1.0 0.00 0.00 0.00 89 1022.9
20140421082539 29 200 0.0 0.0 0.00 0.00 0.00 88 1023.0
20140421082102 29 200 0.0 0.0 0.00 0.00 0.00 88 1023.1
20140421081540 29 200 0.0 0.0 0.00 0.00 0.00 87 1023.3
20140421080606 29 200 0.0 0.0 0.00 0.00 0.00 87 1023.3
20140421075105 29 200 0.0 0.0 0.00 0.00 0.00 87 1023.3
20140421074541 30 200 0.0 0.0 0.00 0.00 0.00 86 1023.4
20140421073606 30 200 0.0 1.0 0.00 0.00 0.00 86 1023.4
20140421073538 30 200 0.0 1.0 0.00 0.00 0.00 86 1023.4
20140421072538 31 200 0.0 0.0 0.00 0.00 0.00 85 1023.5
20140421072059 30 200 0.0 0.0 0.00 0.00 0.00 85 1023.6
20140421070504 31 200 0.0 0.0 0.00 0.00 0.00 84 1023.9
20140421065538 31 200 0.0 0.0 0.00 0.00 0.00 84 1024.0
20140421065000 31 200 0.0 0.0 0.00 0.00 0.00 83 1023.9
20140421064551 32 200 0.0 0.0 0.00 0.00 0.00 83 1023.8
20140421063620 32 200 0.0 0.0 0.00 0.00 0.00 82 1023.8
20140421063500 32 200 0.0 0.0 0.00 0.00 0.00 83 1023.8
20140421062001 32 200 0.0 0.0 0.00 0.00 0.00 82 1024.1
20140421060548 33 200 0.0 0.0 0.00 0.00 0.00 80 1024.3
20140421060504 33 200 0.0 0.0 0.00 0.00 0.00 80 1024.2
20140421055159 33 200 0.0 1.0 0.00 0.00 0.00 79 1024.5
20140421054550 34 200 0.0 0.0 0.00 0.00 0.00 78 1024.6
20140421053502 35 200 0.0 0.0 0.00 0.00 0.00 78 1024.8
20140421052620 36 200 0.0 0.0 0.00 0.00 0.00 76 1025.0
20140421052059 36 200 0.0 0.0 0.00 0.00 0.00 76 1025.1
20140421051554 36 200 0.0 1.0 0.00 0.00 0.00 73 1025.2
20140421050617 36 200 0.0 1.0 0.00 0.00 0.00 75 1025.3
20140421050402 36 200 0.0 1.0 0.00 0.00 0.00 75 1025.3
20140421045552 36 200 0.0 1.0 0.00 0.00 0.00 75 1025.5
20140421044900 36 200 0.0 1.0 0.00 0.00 0.00 74 1025.7
20140421043701 37 200 0.0 2.0 0.00 0.00 0.00 73 1025.8
20140421043620 37 200 0.0 2.0 0.00 0.00 0.00 74 1025.8
20140421042620 36 200 0.0 2.0 0.00 0.00 0.00 75 1025.9
20140421042004 36 200 0.0 2.0 0.00 0.00 0.00 76 1026.0
20140421041545 36 200 0.0 1.0 0.00 0.00 0.00 77 1026.0
20140421040625 35 200 0.0 0.0 0.00 0.00 0.00 77 1026.2
20140421040407 35 200 0.0 0.0 0.00 0.00 0.00 77 1026.2
20140421035539 35 200 0.0 0.0 0.00 0.00 0.00 75 1026.4
20140421034904 35 200 0.0 0.0 0.00 0.00 0.00 74 1026.4
20140421034541 36 200 0.0 0.0 0.00 0.00 0.00 72 1026.5
20140421033501 36 200 0.0 0.0 0.00 0.00 0.00 71 1026.6
20140421032000 36 200 0.0 1.0 0.00 0.00 0.00 70 1026.6
20140421030300 37 200 0.0 0.0 0.00 0.00 0.00 65 1026.7
20140421024800 38 200 0.0 1.0 0.00 0.00 0.00 66 1026.9
20140421024541 38 200 0.0 1.0 0.00 0.00 0.00 65 1026.9
20140421023540 39 200 0.0 0.0 0.00 0.00 0.00 64 1026.9
20140421023305 39 200 0.0 0.0 0.00 0.00 0.00 64 1026.9
20140421022540 39 200 0.0 1.0 0.00 0.00 0.00 60 1027.0
20140421021803 40 200 0.0 1.0 0.00 0.00 0.00 61 1027.0
20140421021541 40 200 0.0 1.0 0.00 0.00 0.00 63 1027.1
20140421020539 41 200 0.0 1.0 0.00 0.00 0.00 56 1027.1
20140421020302 41 200 0.0 0.0 0.00 0.00 0.00 57 1027.1
20140421015538 42 200 0.0 1.0 0.00 0.00 0.00 53 1027.2
20140421014801 42 200 0.0 1.0 0.00 0.00 0.00 51 1027.1
20140421014541 43 200 0.0 1.0 0.00 0.00 0.00 51 1027.2
20140421013539 44 200 0.0 2.0 0.00 0.00 0.00 49 1027.2
20140421013300 43 200 0.0 2.0 0.00 0.00 0.00 47 1027.3
20140421011802 44 234 0.0 2.0 0.00 0.00 0.00 45 1027.2
20140421011541 44 234 0.0 2.0 0.00 0.00 0.00 44 1027.2
20140421010200 43 315 0.0 3.0 0.00 0.00 0.00 45 1027.3
20140421004701 44 315 0.0 3.0 0.00 0.00 0.00 49 1027.4
20140421003539 44 288 0.0 2.0 0.00 0.00 0.00 47 1027.5
20140421003201 44 288 0.0 2.0 0.00 0.00 0.00 50 1027.4
20140421001701 46 288 0.0 2.0 0.00 0.00 0.00 52 1027.5
20140421001541 47 288 0.0 2.0 0.00 0.00 0.00 49 1027.5
20140421000539 47 258 1.0 2.0 0.00 0.00 0.00 42 1027.5
20140421000201 47 258 0.0 2.0 0.00 0.00 0.00 44 1027.5
20140420235538 48 258 0.0 3.0 0.00 0.00 0.00 40 1027.5
20140420234702 49 258 0.0 2.0 0.00 0.00 0.00 43 1027.4
20140420234541 50 258 0.0 3.0 0.00 0.00 0.00 38 1027.5
20140420233200 50 169 0.0 3.0 0.00 0.00 0.00 37 1027.4
20140420231704 51 169 0.0 2.0 0.00 0.00 0.00 37 1027.5
20140420231541 52 169 0.0 2.0 0.00 0.00 0.00 36 1027.5
20140420230539 53 149 0.0 2.0 0.00 0.00 0.00 36 1027.5
20140420230202 52 149 0.0 2.0 0.00 0.00 0.00 37 1027.5
20140420225538 54 149 1.0 3.0 0.00 0.00 0.00 34 1027.5
20140420224600 54 203 0.0 3.0 0.00 0.00 0.00 32 1027.5
20140420223539 55 156 1.0 3.0 0.00 0.00 0.00 30 1027.6
20140420223201 55 173 0.0 3.0 0.00 0.00 0.00 31 1027.5
20140420222539 56 84 1.0 3.0 0.00 0.00 0.00 30 1027.6
20140420221603 55 221 1.0 4.0 0.00 0.00 0.00 27 1027.8
20140420221541 56 237 2.0 3.0 0.00 0.00 0.00 26 1027.8
20140420220101 56 236 2.0 6.0 0.00 0.00 0.00 25 1027.9
20140420215538 57 177 2.0 6.0 0.00 0.00 0.00 24 1028.0
20140420214601 57 91 1.0 4.0 0.00 0.00 0.00 24 1028.0
20140420214541 58 130 1.0 3.0 0.00 0.00 0.00 25 1028.0
20140420213103 58 197 2.0 5.0 0.00 0.00 0.00 24 1028.1
20140420211504 58 169 1.0 4.0 0.00 0.00 0.00 24 1028.2
20140420210000 58 355 0.0 5.0 0.00 0.00 0.00 24 1028.2
20140420204541 58 181 2.0 5.0 0.00 0.00 0.00 26 1028.5
20140420204500 57 171 1.0 5.0 0.00 0.00 0.00 25 1028.4
20140420203539 58 350 1.0 7.0 0.00 0.00 0.00 23 1028.6
20140420202959 58 180 1.0 7.0 0.00 0.00 0.00 25 1028.6
20140420201540 59 216 2.0 5.0 0.00 0.00 0.00 22 1028.8
20140420201503 58 244 1.0 5.0 0.00 0.00 0.00 23 1028.8
20140420200540 58 224 2.0 5.0 0.00 0.00 0.00 24 1028.9
20140420200202 57 180 2.0 5.0 0.00 0.00 0.00 24 1028.9
20140420194540 58 192 1.0 8.0 0.00 0.00 0.00 26 1029.0
20140420194506 58 146 1.0 8.0 0.00 0.00 0.00 25 1029.0
20140420193539 58 230 2.0 6.0 0.00 0.00 0.00 24 1029.1
20140420193100 57 289 0.0 6.0 0.00 0.00 0.00 22 1029.2
20140420191541 58 220 2.0 6.0 0.00 0.00 0.00 23 1029.4
20140420191404 57 238 2.0 6.0 0.00 0.00 0.00 23 1029.4
20140420185859 57 189 3.0 6.0 0.00 0.00 0.00 25 1029.6
20140420184541 57 207 1.0 6.0 0.00 0.00 0.00 24 1029.7
20140420184402 56 228 1.0 6.0 0.00 0.00 0.00 23 1029.7
20140420183539 57 288 2.0 7.0 0.00 0.00 0.00 24 1029.8
20140420182900 56 223 1.0 6.0 0.00 0.00 0.00 25 1029.9
20140420182539 57 351 2.0 6.0 0.00 0.00 0.00 24 1030.0
20140420181541 56 252 2.0 5.0 0.00 0.00 0.00 25 1030.0
20140420181403 56 275 2.0 5.0 0.00 0.00 0.00 27 1030.0
20140420175901 54 76 2.0 5.0 0.00 0.00 0.00 26 1030.2
20140420174401 55 160 2.0 8.0 0.00 0.00 0.00 28 1030.4
20140420173540 55 219 2.0 6.0 0.00 0.00 0.00 28 1030.5
20140420172900 55 118 1.0 5.0 0.00 0.00 0.00 28 1030.4
20140420171542 54 344 2.0 5.0 0.00 0.00 0.00 25 1030.4
20140420171302 54 304 3.0 6.0 0.00 0.00 0.00 25 1030.4
20140420170540 54 219 4.0 5.0 0.00 0.00 0.00 26 1030.4
20140420165800 54 84 1.0 4.0 0.00 0.00 0.00 28 1030.6
20140420164542 53 19 2.0 6.0 0.00 0.00 0.00 27 1030.8
20140420164302 53 194 0.0 6.0 0.00 0.00 0.00 27 1030.7
20140420162759 51 30 2.0 6.0 0.00 0.00 0.00 27 1031.0
20140420162539 52 356 2.0 6.0 0.00 0.00 0.00 27 1031.1
20140420161542 52 245 3.0 5.0 0.00 0.00 0.00 29 1031.3
20140420161304 51 222 1.0 5.0 0.00 0.00 0.00 30 1031.3
20140420160541 52 105 1.0 5.0 0.00 0.00 0.00 30 1031.4
20140420155803 51 99 1.0 5.0 0.00 0.00 0.00 30 1031.5
20140420154541 51 149 2.0 5.0 0.00 0.00 0.00 30 1031.7
20140420154205 50 223 1.0 5.0 0.00 0.00 0.00 29 1031.7
20140420153540 50 94 2.0 7.0 0.00 0.00 0.00 29 1031.7
20140420152759 49 107 1.0 6.0 0.00 0.00 0.00 29 1031.7
20140420152540 49 41 3.0 6.0 0.00 0.00 0.00 29 1031.8
20140420151542 50 88 1.0 3.0 0.00 0.00 0.00 28 1031.8
20140420151300 49 73 0.0 4.0 0.00 0.00 0.00 28 1031.9
20140420145702 48 194 1.0 6.0 0.00 0.00 0.00 31 1031.9
20140420144542 47 334 3.0 7.0 0.00 0.00 0.00 30 1032.0
20140420144222 47 346 2.0 6.0 0.00 0.00 0.00 32 1032.2
20140420142726 47 125 1.0 4.0 0.00 0.00 0.00 32 1032.4
20140420142540 47 178 1.0 3.0 0.00 0.00 0.00 33 1032.4
20140420141402 46 139 0.0 4.0 0.00 0.00 0.00 33 1032.6
20140420135654 45 311 1.0 6.0 0.00 0.01 0.00 36 1032.5
20140420132634 44 106 2.0 6.0 0.00 0.01 0.00 38 1032.5
20140420131131 43 138 1.0 5.0 0.00 0.01 0.00 40 1032.3
20140420125705 41 79 1.0 5.0 0.00 0.01 0.00 46 1032.4
20140420124605 39 125 2.0 5.0 0.00 0.01 0.00 58 1032.4
20140420124108 38 19 0.0 5.0 0.00 0.01 0.00 66 1032.5
20140420122610 35 84 0.0 6.0 0.00 0.01 0.00 78 1032.2
20140420121611 33 331 0.0 2.0 0.00 0.01 0.00 91 1032.6
20140420121006 32 331 0.0 2.0 0.00 0.01 0.00 94 1032.5
20140420115617 30 331 0.0 1.0 0.00 0.01 0.00 96 1032.5
20140420115507 29 331 0.0 1.0 0.00 0.01 0.00 96 1032.5
20140420114604 29 331 0.0 0.0 0.00 0.01 0.00 96 1032.3
20140420114010 28 331 0.0 0.0 0.00 0.01 0.00 96 1032.4
20140420112552 27 331 0.0 0.0 0.00 0.01 0.00 95 1032.3
20140420111610 27 331 0.0 0.0 0.00 0.01 0.00 95 1032.3
20140420111008 26 331 0.0 0.0 0.00 0.01 0.00 95 1032.2
20140420110559 26 331 0.0 1.0 0.00 0.01 0.00 95 1032.3
20140420105529 25 331 0.0 1.0 0.00 0.01 0.00 95 1032.2
20140420104008 25 331 0.0 1.0 0.00 0.01 0.00 94 1032.1
20140420103609 26 331 0.0 1.0 0.00 0.01 0.00 95 1032.1
20140420102506 25 331 0.0 0.0 0.00 0.01 0.00 95 1032.0
20140420101603 25 331 0.0 0.0 0.00 0.01 0.00 94 1032.0
20140420101007 25 331 0.0 0.0 0.00 0.01 0.00 94 1032.0